| time (UTC) | temp F | wind direction | speed MPH | gust MPH | rain 1hr in | rain 24hr in | rain mn in | humidity % | barometer mb |
| 20260506113132 | 32 | 88 | 2.0 | 7.0 | 0.00 | 0.09 | 0.00 | 90 | 1017.0 |
| 20260506112631 | 32 | 100 | 2.0 | 4.0 | 0.00 | 0.09 | 0.00 | 90 | 1017.0 |
| 20260506112130 | 32 | 118 | 1.0 | 5.0 | 0.00 | 0.09 | 0.00 | 89 | 1017.0 |
| 20260506111630 | 32 | 91 | 1.0 | 5.0 | 0.00 | 0.09 | 0.00 | 89 | 1017.0 |
| 20260506111130 | 32 | 83 | 1.0 | 5.0 | 0.00 | 0.09 | 0.00 | 89 | 1017.0 |
| 20260506110629 | 32 | 117 | 1.0 | 5.0 | 0.00 | 0.09 | 0.00 | 90 | 1016.8 |
| 20260506110126 | 32 | 81 | 1.0 | 5.0 | 0.00 | 0.09 | 0.00 | 89 | 1017.0 |
| 20260506105626 | 32 | 121 | 1.0 | 4.0 | 0.00 | 0.09 | 0.00 | 88 | 1017.0 |
| 20260506105356 | 32 | 144 | 2.0 | 5.0 | 0.00 | 0.09 | 0.00 | 88 | 1017.0 |
| 20260506104623 | 33 | 133 | 2.0 | 5.0 | 0.00 | 0.09 | 0.00 | 89 | 1016.8 |
| 20260506104355 | 33 | 96 | 2.0 | 5.0 | 0.00 | 0.09 | 0.00 | 89 | 1016.8 |
| 20260506103623 | 33 | 87 | 2.0 | 5.0 | 0.00 | 0.09 | 0.00 | 89 | 1016.8 |
| 20260506103119 | 33 | 87 | 2.0 | 5.0 | 0.00 | 0.09 | 0.00 | 89 | 1016.7 |
| 20260506102620 | 33 | 90 | 2.0 | 5.0 | 0.00 | 0.09 | 0.00 | 89 | 1016.7 |
| 20260506102118 | 32 | 97 | 2.0 | 4.0 | 0.00 | 0.09 | 0.00 | 89 | 1016.7 |
| 20260506101850 | 33 | 94 | 3.0 | 4.0 | 0.00 | 0.09 | 0.00 | 88 | 1016.7 |
| 20260506101117 | 33 | 98 | 3.0 | 4.0 | 0.00 | 0.09 | 0.00 | 88 | 1016.7 |
| 20260506100849 | 33 | 100 | 2.0 | 4.0 | 0.00 | 0.09 | 0.00 | 88 | 1016.7 |
| 20260506100343 | 33 | 112 | 2.0 | 4.0 | 0.00 | 0.09 | 0.00 | 88 | 1016.7 |
| 20260506095611 | 33 | 79 | 2.0 | 4.0 | 0.00 | 0.09 | 0.00 | 88 | 1016.7 |
| 20260506095112 | 33 | 103 | 2.0 | 4.0 | 0.00 | 0.09 | 0.00 | 89 | 1016.7 |
| 20260506094612 | 33 | 115 | 1.0 | 4.0 | 0.00 | 0.09 | 0.00 | 89 | 1016.6 |
| 20260506094110 | 33 | 117 | 1.0 | 4.0 | 0.00 | 0.09 | 0.00 | 88 | 1016.6 |
| 20260506093609 | 33 | 89 | 1.0 | 4.0 | 0.00 | 0.09 | 0.00 | 88 | 1016.6 |
| 20260506093106 | 33 | 145 | 1.0 | 4.0 | 0.00 | 0.09 | 0.00 | 87 | 1016.6 |
| 20260506092606 | 33 | 140 | 1.0 | 4.0 | 0.00 | 0.09 | 0.00 | 86 | 1016.5 |
| 20260506092105 | 33 | 113 | 1.0 | 5.0 | 0.00 | 0.09 | 0.00 | 85 | 1016.5 |
| 20260506091605 | 34 | 138 | 2.0 | 5.0 | 0.00 | 0.09 | 0.00 | 84 | 1016.5 |
| 20260506091104 | 35 | 146 | 3.0 | 6.0 | 0.00 | 0.09 | 0.00 | 85 | 1016.4 |
| 20260506090603 | 35 | 72 | 3.0 | 6.0 | 0.00 | 0.09 | 0.00 | 87 | 1016.4 |
| 20260506090057 | 35 | 89 | 4.0 | 7.0 | 0.00 | 0.09 | 0.00 | 88 | 1016.4 |
| 20260506085558 | 34 | 91 | 3.0 | 7.0 | 0.00 | 0.09 | 0.00 | 90 | 1016.4 |
| 20260506085057 | 33 | 79 | 2.0 | 4.0 | 0.00 | 0.09 | 0.00 | 89 | 1016.4 |
| 20260506084558 | 33 | 98 | 1.0 | 3.0 | 0.00 | 0.09 | 0.00 | 88 | 1016.4 |
| 20260506084330 | 33 | 109 | 1.0 | 3.0 | 0.00 | 0.09 | 0.00 | 87 | 1016.4 |
| 20260506083559 | 33 | 105 | 1.0 | 3.0 | 0.00 | 0.09 | 0.00 | 87 | 1016.2 |
| 20260506083054 | 34 | 113 | 2.0 | 5.0 | 0.00 | 0.09 | 0.00 | 87 | 1016.2 |
| 20260506082553 | 34 | 100 | 2.0 | 5.0 | 0.00 | 0.09 | 0.00 | 86 | 1016.2 |
| 20260506082052 | 34 | 106 | 2.0 | 5.0 | 0.00 | 0.09 | 0.00 | 85 | 1016.2 |
| 20260506081551 | 35 | 132 | 3.0 | 5.0 | 0.00 | 0.09 | 0.00 | 85 | 1016.4 |
| 20260506081052 | 35 | 87 | 2.0 | 6.0 | 0.00 | 0.09 | 0.00 | 86 | 1016.4 |
| 20260506080551 | 35 | 112 | 2.0 | 6.0 | 0.00 | 0.09 | 0.00 | 87 | 1016.4 |
| 20260506080315 | 35 | 93 | 1.0 | 4.0 | 0.00 | 0.09 | 0.00 | 87 | 1016.2 |
| 20260506073043 | 34 | 114 | 0.0 | 1.0 | 0.00 | 0.09 | 0.00 | 87 | 1016.4 |
| 20260506072543 | 35 | 113 | 0.0 | 1.0 | 0.00 | 0.09 | 0.00 | 87 | 1016.4 |
| 20260506072316 | 35 | 114 | 0.0 | 1.0 | 0.00 | 0.09 | 0.00 | 87 | 1016.4 |
| 20260506071541 | 35 | 106 | 0.0 | 3.0 | 0.00 | 0.09 | 0.00 | 86 | 1016.4 |
| 20260506071040 | 35 | 106 | 0.0 | 3.0 | 0.00 | 0.09 | 0.00 | 86 | 1016.4 |
| 20260506070541 | 35 | 151 | 0.0 | 3.0 | 0.00 | 0.09 | 0.00 | 87 | 1016.5 |
| 20260506062026 | 36 | 265 | 0.0 | 0.0 | 0.00 | 0.09 | 0.09 | 85 | 1016.2 |
| 20260506061756 | 36 | 265 | 0.0 | 0.0 | 0.00 | 0.09 | 0.09 | 84 | 1016.1 |
| 20260506061024 | 36 | 264 | 0.0 | 0.0 | 0.00 | 0.09 | 0.09 | 84 | 1016.1 |
| 20260506060523 | 37 | 265 | 0.0 | 0.0 | 0.00 | 0.09 | 0.09 | 84 | 1016.1 |
| 20260506051005 | 39 | 265 | 0.0 | 0.0 | 0.00 | 0.09 | 0.09 | 79 | 1015.9 |
| 20260506050459 | 39 | 265 | 0.0 | 0.0 | 0.00 | 0.09 | 0.09 | 78 | 1015.9 |
| 20260506044954 | 40 | 264 | 0.0 | 0.0 | 0.00 | 0.09 | 0.09 | 76 | 1015.8 |
| 20260506044729 | 40 | 265 | 0.0 | 1.0 | 0.00 | 0.09 | 0.09 | 75 | 1015.8 |
| 20260506043954 | 40 | 264 | 0.0 | 1.0 | 0.00 | 0.09 | 0.09 | 74 | 1015.8 |
| 20260506043450 | 41 | 264 | 0.0 | 1.0 | 0.00 | 0.09 | 0.09 | 73 | 1015.8 |
| 20260506042951 | 41 | 264 | 0.0 | 1.0 | 0.00 | 0.09 | 0.09 | 73 | 1015.6 |
| 20260506042451 | 41 | 265 | 0.0 | 1.0 | 0.00 | 0.09 | 0.09 | 71 | 1015.6 |
| 20260506041944 | 42 | 264 | 0.0 | 1.0 | 0.00 | 0.09 | 0.09 | 70 | 1015.5 |
| 20260506041443 | 42 | 265 | 0.0 | 1.0 | 0.00 | 0.09 | 0.09 | 69 | 1015.5 |
| 20260506040942 | 43 | 265 | 0.0 | 1.0 | 0.00 | 0.09 | 0.09 | 68 | 1015.4 |
| 20260506040444 | 43 | 265 | 0.0 | 0.0 | 0.00 | 0.09 | 0.09 | 66 | 1015.4 |
| 20260506035944 | 44 | 264 | 0.0 | 0.0 | 0.00 | 0.09 | 0.09 | 64 | 1015.3 |
| 20260506035442 | 44 | 264 | 0.0 | 0.0 | 0.00 | 0.09 | 0.09 | 63 | 1015.3 |
| 20260506034942 | 45 | 264 | 0.0 | 0.0 | 0.00 | 0.09 | 0.09 | 62 | 1015.2 |
| 20260506034442 | 46 | 265 | 0.0 | 0.0 | 0.00 | 0.09 | 0.09 | 61 | 1015.1 |
| 20260506033941 | 46 | 265 | 0.0 | 0.0 | 0.00 | 0.09 | 0.09 | 60 | 1015.1 |
| 20260506033442 | 46 | 264 | 0.0 | 0.0 | 0.00 | 0.09 | 0.09 | 59 | 1014.8 |
| 20260506032440 | 46 | 265 | 0.0 | 0.0 | 0.00 | 0.09 | 0.09 | 58 | 1014.7 |
| 20260506031938 | 46 | 265 | 0.0 | 0.0 | 0.00 | 0.09 | 0.09 | 57 | 1014.6 |
| 20260506031705 | 47 | 264 | 0.0 | 4.0 | 0.00 | 0.09 | 0.09 | 57 | 1014.5 |
| 20260506031207 | 47 | 265 | 0.0 | 4.0 | 0.00 | 0.09 | 0.09 | 56 | 1014.5 |
| 20260506030434 | 47 | 264 | 0.0 | 4.0 | 0.00 | 0.09 | 0.09 | 55 | 1014.3 |
| 20260506025934 | 47 | 261 | 0.0 | 4.0 | 0.00 | 0.09 | 0.09 | 55 | 1014.3 |
| 20260506025706 | 47 | 281 | 0.0 | 3.0 | 0.00 | 0.09 | 0.09 | 54 | 1014.2 |
| 20260506024936 | 48 | 254 | 0.0 | 7.0 | 0.00 | 0.09 | 0.09 | 53 | 1014.1 |
| 20260506023926 | 48 | 243 | 1.0 | 8.0 | 0.00 | 0.09 | 0.09 | 51 | 1014.0 |
| 20260506023424 | 49 | 235 | 2.0 | 8.0 | 0.00 | 0.09 | 0.09 | 51 | 1013.9 |
| 20260506022925 | 49 | 227 | 1.0 | 7.0 | 0.00 | 0.09 | 0.09 | 50 | 1013.9 |
| 20260506022421 | 49 | 233 | 1.0 | 7.0 | 0.00 | 0.09 | 0.09 | 50 | 1013.7 |
| 20260506021922 | 49 | 271 | 1.0 | 8.0 | 0.00 | 0.09 | 0.09 | 49 | 1013.7 |
| 20260506021417 | 49 | 264 | 1.0 | 8.0 | 0.00 | 0.09 | 0.09 | 49 | 1013.6 |
| 20260506021148 | 49 | 248 | 1.0 | 8.0 | 0.00 | 0.09 | 0.09 | 48 | 1013.6 |
| 20260506020418 | 50 | 276 | 1.0 | 8.0 | 0.00 | 0.09 | 0.09 | 48 | 1013.5 |
| 20260506015914 | 50 | 250 | 2.0 | 9.0 | 0.00 | 0.09 | 0.09 | 47 | 1013.4 |
| 20260506015412 | 51 | 245 | 2.0 | 9.0 | 0.00 | 0.09 | 0.09 | 47 | 1013.3 |
| 20260506014912 | 51 | 257 | 2.0 | 9.0 | 0.00 | 0.09 | 0.09 | 47 | 1013.4 |
| 20260506014410 | 51 | 225 | 2.0 | 9.0 | 0.00 | 0.09 | 0.09 | 47 | 1013.3 |
| 20260506013910 | 52 | 244 | 1.0 | 7.0 | 0.00 | 0.09 | 0.09 | 47 | 1013.3 |
| 20260506013411 | 52 | 261 | 1.0 | 7.0 | 0.00 | 0.09 | 0.09 | 46 | 1013.3 |
| 20260506012906 | 52 | 187 | 1.0 | 7.0 | 0.00 | 0.09 | 0.09 | 46 | 1013.2 |
| 20260506012403 | 53 | 237 | 2.0 | 8.0 | 0.00 | 0.09 | 0.09 | 45 | 1013.2 |
| 20260506011902 | 53 | 235 | 3.0 | 8.0 | 0.00 | 0.09 | 0.09 | 44 | 1013.2 |
| 20260506011403 | 53 | 238 | 3.0 | 8.0 | 0.00 | 0.09 | 0.09 | 44 | 1013.2 |
| 20260506011132 | 54 | 266 | 3.0 | 8.0 | 0.00 | 0.09 | 0.09 | 43 | 1013.0 |
| 20260506010402 | 54 | 277 | 3.0 | 9.0 | 0.00 | 0.09 | 0.09 | 43 | 1013.2 |
| 20260506005900 | 54 | 162 | 3.0 | 11.0 | 0.00 | 0.09 | 0.09 | 43 | 1012.9 |
| 20260506005632 | 55 | 296 | 2.0 | 11.0 | 0.00 | 0.09 | 0.09 | 44 | 1012.9 |
| 20260506004900 | 54 | 210 | 3.0 | 9.0 | 0.00 | 0.09 | 0.09 | 44 | 1012.8 |
| 20260506004356 | 54 | 217 | 3.0 | 9.0 | 0.00 | 0.09 | 0.09 | 42 | 1012.8 |
| 20260506004127 | 54 | 251 | 3.0 | 8.0 | 0.00 | 0.09 | 0.09 | 44 | 1012.7 |
| 20260506003353 | 54 | 228 | 2.0 | 13.0 | 0.00 | 0.09 | 0.09 | 44 | 1012.8 |
| 20260506002852 | 54 | 160 | 2.0 | 13.0 | 0.00 | 0.09 | 0.09 | 44 | 1012.7 |
| 20260506002350 | 54 | 231 | 2.0 | 14.0 | 0.00 | 0.09 | 0.09 | 45 | 1012.7 |
| 20260506001851 | 55 | 224 | 3.0 | 14.0 | 0.00 | 0.09 | 0.09 | 44 | 1012.7 |
| 20260506001344 | 56 | 167 | 3.0 | 10.0 | 0.00 | 0.09 | 0.09 | 43 | 1012.6 |
| 20260506000844 | 57 | 231 | 3.0 | 11.0 | 0.00 | 0.09 | 0.09 | 41 | 1012.4 |
| 20260506000342 | 56 | 247 | 3.0 | 11.0 | 0.00 | 0.09 | 0.09 | 43 | 1012.4 |
| 20260505235842 | 56 | 280 | 3.0 | 11.0 | 0.00 | 0.09 | 0.09 | 43 | 1012.3 |
| 20260505235342 | 56 | 196 | 4.0 | 12.0 | 0.00 | 0.09 | 0.09 | 44 | 1012.3 |
| 20260505234844 | 56 | 247 | 4.0 | 12.0 | 0.00 | 0.09 | 0.09 | 42 | 1012.3 |
| 20260505234343 | 56 | 217 | 3.0 | 11.0 | 0.00 | 0.09 | 0.09 | 43 | 1012.2 |
| 20260505234113 | 55 | 231 | 3.0 | 12.0 | 0.00 | 0.09 | 0.09 | 44 | 1012.2 |
| 20260505233610 | 56 | 273 | 3.0 | 12.0 | 0.00 | 0.09 | 0.09 | 41 | 1012.2 |
| 20260505232842 | 56 | 255 | 4.0 | 17.0 | 0.00 | 0.09 | 0.09 | 42 | 1012.2 |
| 20260505232340 | 56 | 165 | 4.0 | 17.0 | 0.00 | 0.09 | 0.09 | 42 | 1012.3 |
| 20260505231332 | 56 | 252 | 4.0 | 10.0 | 0.00 | 0.09 | 0.09 | 41 | 1012.2 |
| 20260505230832 | 56 | 221 | 4.0 | 10.0 | 0.00 | 0.09 | 0.09 | 40 | 1012.2 |
| 20260505230332 | 56 | 257 | 3.0 | 12.0 | 0.00 | 0.09 | 0.09 | 40 | 1012.1 |
| 20260505225829 | 56 | 213 | 3.0 | 12.0 | 0.00 | 0.09 | 0.09 | 42 | 1012.1 |
| 20260505224830 | 57 | 161 | 2.0 | 14.0 | 0.00 | 0.09 | 0.09 | 42 | 1012.3 |
| 20260505224559 | 56 | 220 | 4.0 | 15.0 | 0.00 | 0.09 | 0.09 | 40 | 1012.2 |
| 20260505223830 | 56 | 234 | 5.0 | 15.0 | 0.00 | 0.09 | 0.09 | 38 | 1012.2 |
| 20260505223329 | 56 | 123 | 4.0 | 12.0 | 0.00 | 0.09 | 0.09 | 39 | 1012.4 |
| 20260505222828 | 56 | 230 | 3.0 | 11.0 | 0.00 | 0.09 | 0.09 | 45 | 1012.2 |
| 20260505222329 | 55 | 192 | 3.0 | 11.0 | 0.00 | 0.09 | 0.09 | 44 | 1012.3 |
| 20260505221824 | 55 | 160 | 4.0 | 11.0 | 0.00 | 0.09 | 0.09 | 43 | 1012.4 |
| 20260505221326 | 56 | 230 | 3.0 | 12.0 | 0.00 | 0.09 | 0.09 | 41 | 1012.6 |
| 20260505220826 | 56 | 227 | 3.0 | 12.0 | 0.00 | 0.09 | 0.09 | 43 | 1012.6 |
| 20260505220326 | 55 | 148 | 4.0 | 14.0 | 0.00 | 0.09 | 0.09 | 47 | 1012.6 |
| 20260505215826 | 55 | 164 | 3.0 | 14.0 | 0.00 | 0.09 | 0.09 | 45 | 1012.7 |
| 20260505215326 | 56 | 217 | 4.0 | 15.0 | 0.00 | 0.09 | 0.09 | 42 | 1012.8 |
| 20260505214821 | 56 | 250 | 4.0 | 15.0 | 0.00 | 0.09 | 0.09 | 45 | 1012.7 |
| 20260505214320 | 55 | 213 | 4.0 | 15.0 | 0.00 | 0.09 | 0.09 | 48 | 1012.8 |
| 20260505213820 | 55 | 186 | 4.0 | 15.0 | 0.00 | 0.09 | 0.09 | 49 | 1012.8 |
| 20260505213320 | 55 | 164 | 4.0 | 15.0 | 0.00 | 0.09 | 0.09 | 52 | 1012.8 |
| 20260505212820 | 54 | 242 | 2.0 | 12.0 | 0.00 | 0.09 | 0.09 | 58 | 1012.8 |
| 20260505212554 | 53 | 150 | 3.0 | 12.0 | 0.00 | 0.09 | 0.09 | 59 | 1013.0 |
| 20260505211817 | 53 | 145 | 4.0 | 12.0 | 0.00 | 0.09 | 0.09 | 55 | 1013.0 |
| 20260505211319 | 54 | 209 | 3.0 | 12.0 | 0.00 | 0.09 | 0.09 | 58 | 1012.9 |
| 20260505210816 | 53 | 145 | 3.0 | 12.0 | 0.00 | 0.09 | 0.09 | 58 | 1013.2 |
| 20260505210318 | 53 | 145 | 4.0 | 12.0 | 0.00 | 0.09 | 0.09 | 59 | 1013.2 |
| 20260505205818 | 53 | 220 | 3.0 | 12.0 | 0.00 | 0.09 | 0.09 | 58 | 1013.2 |
| 20260505205318 | 54 | 150 | 3.0 | 12.0 | 0.00 | 0.09 | 0.09 | 55 | 1013.2 |
| 20260505204813 | 54 | 143 | 2.0 | 11.0 | 0.00 | 0.09 | 0.09 | 59 | 1013.0 |
| 20260505204314 | 55 | 162 | 3.0 | 11.0 | 0.00 | 0.09 | 0.09 | 60 | 1013.3 |
| 20260505203813 | 55 | 174 | 4.0 | 12.0 | 0.00 | 0.09 | 0.09 | 61 | 1013.2 |
| 20260505203313 | 54 | 240 | 4.0 | 12.0 | 0.00 | 0.09 | 0.09 | 62 | 1013.2 |
| 20260505203045 | 54 | 252 | 4.0 | 12.0 | 0.00 | 0.09 | 0.09 | 63 | 1013.3 |
| 20260505202314 | 54 | 137 | 4.0 | 12.0 | 0.00 | 0.09 | 0.09 | 62 | 1013.3 |
| 20260505201813 | 55 | 228 | 4.0 | 13.0 | 0.00 | 0.09 | 0.09 | 62 | 1013.2 |
| 20260505201313 | 56 | 206 | 3.0 | 13.0 | 0.00 | 0.09 | 0.09 | 65 | 1013.2 |
| 20260505200812 | 55 | 213 | 4.0 | 13.0 | 0.00 | 0.09 | 0.09 | 64 | 1013.2 |
| 20260505200312 | 54 | 231 | 5.0 | 11.0 | 0.00 | 0.09 | 0.09 | 63 | 1013.4 |
| 20260505195814 | 54 | 228 | 4.0 | 11.0 | 0.00 | 0.09 | 0.09 | 68 | 1013.4 |
| 20260505195312 | 54 | 271 | 4.0 | 11.0 | 0.00 | 0.09 | 0.09 | 72 | 1013.4 |
| 20260505194812 | 52 | 271 | 4.0 | 11.0 | 0.00 | 0.09 | 0.09 | 73 | 1013.4 |
| 20260505194312 | 51 | 224 | 4.0 | 12.0 | 0.00 | 0.09 | 0.09 | 78 | 1013.5 |
| 20260505193816 | 51 | 238 | 2.0 | 12.0 | 0.00 | 0.09 | 0.09 | 82 | 1013.5 |
| 20260505193546 | 50 | 268 | 2.0 | 10.0 | 0.00 | 0.09 | 0.09 | 81 | 1013.5 |
| 20260505192811 | 50 | 251 | 2.0 | 10.0 | 0.00 | 0.09 | 0.09 | 80 | 1013.6 |
| 20260505192310 | 51 | 279 | 3.0 | 10.0 | 0.00 | 0.09 | 0.09 | 76 | 1013.6 |
| 20260505191808 | 51 | 164 | 2.0 | 10.0 | 0.00 | 0.09 | 0.09 | 74 | 1013.5 |
| 20260505191309 | 52 | 188 | 2.0 | 9.0 | 0.00 | 0.09 | 0.09 | 75 | 1013.6 |
| 20260505190810 | 51 | 226 | 2.0 | 11.0 | 0.01 | 0.09 | 0.09 | 76 | 1013.5 |
| 20260505190309 | 52 | 247 | 2.0 | 11.0 | 0.01 | 0.09 | 0.09 | 75 | 1013.6 |
| 20260505185805 | 52 | 234 | 3.0 | 11.0 | 0.01 | 0.09 | 0.09 | 74 | 1013.7 |
| 20260505185305 | 52 | 167 | 3.0 | 11.0 | 0.02 | 0.09 | 0.09 | 76 | 1013.7 |
| 20260505184805 | 51 | 219 | 4.0 | 12.0 | 0.07 | 0.09 | 0.09 | 78 | 1013.7 |
| 20260505184535 | 51 | 254 | 4.0 | 13.0 | 0.07 | 0.09 | 0.09 | 76 | 1013.7 |
| 20260505183806 | 51 | 221 | 2.0 | 13.0 | 0.07 | 0.09 | 0.09 | 82 | 1013.9 |
| 20260505183305 | 50 | 151 | 2.0 | 8.0 | 0.07 | 0.09 | 0.09 | 83 | 1013.7 |
| 20260505182801 | 50 | 262 | 2.0 | 10.0 | 0.07 | 0.09 | 0.09 | 84 | 1013.7 |
| 20260505182305 | 50 | 178 | 2.0 | 10.0 | 0.07 | 0.09 | 0.09 | 86 | 1013.7 |
| 20260505181801 | 49 | 285 | 3.0 | 10.0 | 0.07 | 0.09 | 0.09 | 86 | 1013.6 |
| 20260505181301 | 49 | 150 | 3.0 | 10.0 | 0.07 | 0.09 | 0.09 | 87 | 1013.7 |
| 20260505180802 | 49 | 276 | 2.0 | 8.0 | 0.06 | 0.08 | 0.08 | 88 | 1013.6 |
| 20260505180302 | 48 | 216 | 2.0 | 8.0 | 0.06 | 0.08 | 0.08 | 89 | 1013.7 |
| 20260505175756 | 47 | 219 | 2.0 | 7.0 | 0.06 | 0.08 | 0.08 | 87 | 1013.9 |
| 20260505175256 | 48 | 235 | 1.0 | 6.0 | 0.05 | 0.07 | 0.08 | 84 | 1013.9 |
| 20260505174756 | 49 | 228 | 1.0 | 7.0 | 0.00 | 0.02 | 0.02 | 85 | 1013.7 |
| 20260505174258 | 48 | 242 | 1.0 | 7.0 | 0.00 | 0.02 | 0.02 | 86 | 1013.7 |
| 20260505173757 | 48 | 144 | 2.0 | 7.0 | 0.00 | 0.02 | 0.02 | 85 | 1013.7 |
| 20260505173530 | 48 | 145 | 1.0 | 7.0 | 0.00 | 0.02 | 0.02 | 85 | 1013.7 |
| 20260505172752 | 49 | 146 | 1.0 | 7.0 | 0.00 | 0.02 | 0.02 | 85 | 1013.6 |
| 20260505172526 | 49 | 119 | 1.0 | 8.0 | 0.00 | 0.02 | 0.02 | 85 | 1013.6 |
| 20260505171752 | 49 | 245 | 1.0 | 8.0 | 0.00 | 0.02 | 0.02 | 85 | 1013.6 |
| 20260505171253 | 48 | 160 | 2.0 | 9.0 | 0.00 | 0.02 | 0.02 | 84 | 1013.5 |
| 20260505170754 | 49 | 80 | 2.0 | 9.0 | 0.00 | 0.02 | 0.02 | 83 | 1013.6 |
| 20260505170525 | 49 | 157 | 2.0 | 9.0 | 0.00 | 0.02 | 0.02 | 83 | 1013.6 |
| 20260505165755 | 49 | 164 | 3.0 | 10.0 | 0.00 | 0.02 | 0.02 | 84 | 1013.5 |
| 20260505165023 | 49 | 94 | 2.0 | 7.0 | 0.00 | 0.02 | 0.02 | 87 | 1013.4 |
| 20260505164252 | 48 | 148 | 2.0 | 6.0 | 0.00 | 0.02 | 0.02 | 89 | 1013.5 |
| 20260505163754 | 47 | 126 | 2.0 | 6.0 | 0.00 | 0.02 | 0.02 | 88 | 1013.5 |
| 20260505163249 | 47 | 134 | 1.0 | 5.0 | 0.00 | 0.02 | 0.02 | 88 | 1013.6 |
| 20260505162750 | 47 | 145 | 1.0 | 4.0 | 0.00 | 0.02 | 0.02 | 88 | 1013.6 |
| 20260505162250 | 47 | 122 | 0.0 | 7.0 | 0.00 | 0.02 | 0.02 | 88 | 1013.6 |
| 20260505161749 | 47 | 223 | 0.0 | 7.0 | 0.00 | 0.02 | 0.02 | 88 | 1013.6 |
| 20260505161248 | 47 | 223 | 1.0 | 7.0 | 0.00 | 0.02 | 0.02 | 89 | 1013.6 |
| 20260505160750 | 47 | 254 | 1.0 | 7.0 | 0.00 | 0.02 | 0.02 | 89 | 1013.6 |
| 20260505160245 | 46 | 154 | 1.0 | 5.0 | 0.00 | 0.02 | 0.02 | 89 | 1013.7 |
| 20260505153240 | 46 | 126 | 0.0 | 2.0 | 0.00 | 0.02 | 0.02 | 89 | 1013.4 |
| 20260505152735 | 46 | 126 | 0.0 | 3.0 | 0.01 | 0.02 | 0.02 | 89 | 1013.6 |
| 20260505152235 | 46 | 92 | 0.0 | 3.0 | 0.01 | 0.02 | 0.02 | 89 | 1013.6 |
| 20260505152006 | 46 | 93 | 1.0 | 3.0 | 0.02 | 0.02 | 0.02 | 89 | 1013.5 |
| 20260505151233 | 46 | 92 | 1.0 | 5.0 | 0.02 | 0.02 | 0.02 | 89 | 1013.5 |
| 20260505151003 | 46 | 83 | 1.0 | 5.0 | 0.02 | 0.02 | 0.02 | 89 | 1013.4 |
| 20260505150230 | 46 | 111 | 1.0 | 5.0 | 0.02 | 0.02 | 0.02 | 89 | 1013.4 |
| 20260505140207 | 46 | 143 | 1.0 | 4.0 | 0.00 | 0.00 | 0.00 | 86 | 1013.5 |
| 20260505124857 | 45 | 138 | 0.0 | 3.0 | 0.00 | 0.00 | 0.00 | 83 | 1012.8 |
| 20260505124127 | 45 | 144 | 0.0 | 3.0 | 0.00 | 0.00 | 0.00 | 83 | 1012.8 |
| 20260505123628 | 45 | 140 | 0.0 | 3.0 | 0.00 | 0.00 | 0.00 | 82 | 1012.7 |
| 20260505123122 | 45 | 141 | 0.0 | 3.0 | 0.00 | 0.00 | 0.00 | 82 | 1012.7 |
| 20260505122616 | 45 | 129 | 0.0 | 4.0 | 0.00 | 0.00 | 0.00 | 82 | 1012.6 |
| 20260505122110 | 46 | 143 | 0.0 | 4.0 | 0.00 | 0.00 | 0.00 | 81 | 1012.6 |
| 20260505121604 | 46 | 143 | 0.0 | 2.0 | 0.00 | 0.00 | 0.00 | 81 | 1012.7 |
| 20260505121057 | 46 | 143 | 0.0 | 2.0 | 0.00 | 0.00 | 0.00 | 81 | 1012.8 |
| 20260505120559 | 46 | 143 | 0.0 | 5.0 | 0.00 | 0.00 | 0.00 | 81 | 1012.8 |
| 20260505120056 | 46 | 137 | 0.0 | 5.0 | 0.00 | 0.00 | 0.00 | 81 | 1012.8 |
| 20260505115556 | 46 | 150 | 1.0 | 7.0 | 0.00 | 0.00 | 0.00 | 80 | 1012.9 |
| 20260505115055 | 46 | 155 | 1.0 | 7.0 | 0.00 | 0.00 | 0.00 | 80 | 1012.8 |
| 20260505114552 | 46 | 165 | 2.0 | 7.0 | 0.00 | 0.00 | 0.00 | 80 | 1012.9 |
| 20260505114053 | 46 | 171 | 1.0 | 7.0 | 0.00 | 0.00 | 0.00 | 79 | 1012.9 |